LEMUR-2-DUNLOP (43053 NORAD) Tracking and Keplerian Element Data

This shows tracking and keplerian element data for the satellite.

Feedback or suggestion? Click here.




ElementValue
Catalog43053
NameLEMUR-2-DUNLOP
Epoch Orbit13079
Epoch Day93.92947201
Epoch Year2020
RAAN68.8639
Inclination51.6363
Eccentricity6.49E-05
Argument of Perigee19.9628
Mean Anonmoly340.1384
Mean Motion15.45841498
Decay Rate7.303E-05
L11 43053U 17071S 20093.92947201 .00007303 00000-0 15653-3 0 9995
L22 43053 51.6363 68.8639 0000649 19.9628 340.1384 15.45841498130797

Live tracking and technical data element details for LEMUR-2-DUNLOP (NORAD 43053). LEMUR-2-DUNLOP can be tracked NOW for your location showing map with azimuth and elevation plus other details from your city location.

Track the satellite on the map from your city or location and see movement details for azimuth, elevation, latitude, longitude, range, height, and movement on the map or in text.







IsCatalogInMostPopularTable: catalog: 43053, numindb: 424
Update: records affected: 1



GetName: 43053 LEMUR-2-DUNLOP

Hit Count: updated at: Thu, 09 Apr 2020 16:06:52 GMT